AD7CQ Weather Reports


time (UTC)temp
C
wind
direction
speed
KPH
gust
KPH
rain 1hr
cm
rain 24hr
cm
rain mn
cm
humidity
%
barometer
mb
20260509004557 27 241 1.6 11.3 0.00 0.00 0.00 17 1010.6
20260509003041 27 248 3.2 12.9 0.00 0.00 0.00 19 1010.5
20260509001531 27 252 3.2 11.3 0.00 0.00 0.00 16 1010.5
20260509000030 27 251 1.6 9.7 0.00 0.00 0.00 18 1010.5
20260508234529 27 241 1.6 14.5 0.00 0.00 0.00 17 1010.5
20260508233029 27 178 4.8 20.9 0.00 0.00 0.00 19 1010.6
20260508231527 26 178 1.6 14.5 0.00 0.00 0.00 20 1010.7
20260508230039 27 206 4.8 17.7 0.00 0.00 0.00 20 1010.7
20260508224523 26 212 3.2 14.5 0.00 0.00 0.00 22 1010.8
20260508223025 26 283 1.6 12.9 0.00 0.00 0.00 22 1010.8
20260508221521 26 212 1.6 9.7 0.00 0.00 0.00 23 1010.8
20260508220020 26 261 3.2 9.7 0.00 0.00 0.00 23 1010.9
20260508214519 26 187 1.6 17.7 0.00 0.00 0.00 23 1010.9
20260508213018 25 165 1.6 12.9 0.00 0.00 0.00 25 1011.0
20260508211516 25 208 4.8 16.1 0.00 0.00 0.00 26 1011.1
20260508210012 25 197 3.2 11.3 0.00 0.00 0.00 26 1011.0
20260508204508 24 177 3.2 9.7 0.00 0.00 0.00 27 1011.2
20260508203006 23 359 3.2 16.1 0.00 0.00 0.00 26 1011.2
20260508201504 23 205 3.2 9.7 0.00 0.00 0.00 27 1011.2
20260508200004 23 217 1.6 12.9 0.00 0.00 0.00 26 1011.2
20260508194501 23 251 1.6 14.5 0.00 0.00 0.00 26 1011.3
20260508193110 23 175 0.0 8.0 0.00 0.00 0.00 28 1011.2
20260508191557 23 218 1.6 16.1 0.00 0.00 0.00 27 1011.3
20260508184618 23 147 1.6 11.3 0.00 0.00 0.00 31 1011.7
20260508183051 22 179 0.0 11.3 0.00 0.00 0.00 32 1011.8
20260508181559 21 170 1.6 14.5 0.00 0.00 0.00 35 1011.9
20260508180045 21 128 1.6 11.3 0.00 0.00 0.00 35 1012.1
20260508174543 20 135 1.6 11.3 0.00 0.00 0.00 40 1012.2
20260508173038 20 165 1.6 11.3 0.00 0.00 0.00 41 1012.1
20260508171538 20 167 3.2 12.9 0.00 0.00 0.00 38 1012.0
20260508170039 20 194 1.6 17.7 0.00 0.00 0.00 39 1011.8
20260508164532 19 193 0.0 9.7 0.00 0.00 0.00 41 1011.8
20260508163029 18 179 1.6 16.1 0.00 0.00 0.00 43 1011.8
20260508161525 18 174 1.6 8.0 0.00 0.00 0.00 45 1011.8
20260508160022 17 168 0.0 8.0 0.00 0.00 0.00 46 1011.7
20260508154518 17 168 1.6 6.4 0.00 0.00 0.00 47 1011.7
20260508153016 16 175 0.0 3.2 0.00 0.00 0.00 48 1011.5
20260508151515 16 129 1.6 9.7 0.00 0.00 0.00 50 1011.5
20260508150019 16 197 0.0 8.0 0.00 0.00 0.00 49 1011.5
20260508144517 15 182 1.6 11.3 0.00 0.00 0.00 49 1011.5
20260508143008 15 128 1.6 4.8 0.00 0.00 0.00 49 1011.3
20260508141505 15 123 0.0 0.0 0.00 0.00 0.00 49 1011.0
20260508140008 15 122 0.0 1.6 0.00 0.00 0.00 49 1010.9
20260508134503 14 124 0.0 0.0 0.00 0.00 0.00 51 1010.8
20260508133119 13 125 0.0 0.0 0.00 0.00 0.00 53 1010.7
20260508131554 13 124 0.0 0.0 0.00 0.00 0.00 53 1010.6
20260508130051 13 123 0.0 0.0 0.00 0.00 0.00 53 1010.6
20260508124549 12 123 0.0 0.0 0.00 0.00 0.00 53 1010.5
20260508123058 12 124 0.0 0.0 0.00 0.00 0.00 52 1010.4
20260508121546 13 123 0.0 0.0 0.00 0.00 0.00 51 1010.4
20260508120045 13 123 0.0 0.0 0.00 0.00 0.00 50 1010.4
20260508114542 13 123 0.0 0.0 0.00 0.00 0.00 49 1010.3
20260508113055 13 123 0.0 4.8 0.00 0.00 0.00 48 1010.3
20260508111543 13 123 1.6 4.8 0.00 0.00 0.00 47 1010.1
20260508110048 13 124 0.0 4.8 0.00 0.00 0.00 45 1010.0
20260508104537 13 124 0.0 8.0 0.00 0.00 0.00 44 1010.0
20260508103032 14 130 1.6 4.8 0.00 0.00 0.00 43 1009.9
20260508101533 14 125 0.0 4.8 0.00 0.00 0.00 41 1009.9
20260508100030 14 125 0.0 9.7 0.00 0.00 0.00 39 1009.9
20260508094526 14 127 1.6 11.3 0.00 0.00 0.00 37 1009.8
20260508093029 15 125 1.6 6.4 0.00 0.00 0.00 36 1009.7
20260508091523 15 134 1.6 8.0 0.00 0.00 0.00 34 1009.8
20260508090026 15 123 1.6 6.4 0.00 0.00 0.00 32 1009.8
20260508084519 16 136 1.6 12.9 0.00 0.00 0.00 29 1009.8
20260508083016 16 128 1.6 4.8 0.00 0.00 0.00 28 1009.7
20260508081514 16 131 1.6 6.4 0.00 0.00 0.00 28 1009.7
20260508080015 16 133 0.0 1.6 0.00 0.00 0.00 29 1009.7
20260508074518 16 135 0.0 0.0 0.00 0.00 0.00 31 1009.7
20260508073006 17 135 0.0 0.0 0.00 0.00 0.00 30 1009.7
20260508071505 17 135 0.0 0.0 0.00 0.00 0.00 30 1009.5
20260508070002 17 135 0.0 0.0 0.00 0.00 0.00 30 1009.4
20260508064501 18 135 0.0 3.2 0.00 0.00 0.00 28 1009.4
20260508063100 18 144 1.6 14.5 0.00 0.00 0.00 28 1009.4
20260508061559 18 141 1.6 14.5 0.00 0.00 0.00 29 1009.3
20260508060058 19 112 1.6 4.8 0.00 0.00 0.00 32 1009.1
20260508054557 19 112 0.0 3.2 0.00 0.00 0.00 34 1009.2
20260508053119 19 112 0.0 3.2 0.00 0.00 0.00 34 1009.1
20260508051556 20 112 0.0 0.0 0.00 0.00 0.00 36 1009.0
20260508050055 20 112 0.0 0.0 0.00 0.00 0.00 38 1009.0
20260508044557 20 112 0.0 0.0 0.00 0.00 0.00 40 1008.9
20260508043103 20 112 0.0 0.0 0.00 0.00 0.00 39 1008.9
20260508041615 20 112 0.0 0.0 0.00 0.00 0.00 37 1009.0
20260508040110 21 112 0.0 0.0 0.00 0.00 0.00 35 1008.9
20260508034553 22 112 0.0 0.0 0.00 0.00 0.00 32 1008.7
20260508033052 22 112 0.0 0.0 0.00 0.00 0.00 29 1008.7
20260508031554 22 112 0.0 3.2 0.00 0.00 0.00 27 1008.7
20260508030052 23 112 0.0 4.8 0.00 0.00 0.00 26 1008.7
20260508024603 23 113 0.0 3.2 0.00 0.00 0.00 25 1008.7
20260508023051 24 112 0.0 3.2 0.00 0.00 0.00 25 1008.6
20260508021548 25 112 1.6 6.4 0.00 0.00 0.00 24 1008.6
20260508020050 26 118 1.6 6.4 0.00 0.00 0.00 23 1008.7
20260508014546 26 118 0.0 6.4 0.00 0.00 0.00 23 1008.8
20260508013044 26 119 0.0 0.0 0.00 0.00 0.00 22 1008.7
20260508011551 27 119 0.0 0.0 0.00 0.00 0.00 22 1008.8
20260508010040 27 120 0.0 3.2 0.00 0.00 0.00 23 1008.9